Location: Unspecified
(41.1850°N, 73.2650°W)
Time: 15:10:25
(UTC+00:00)

N. Korean satellite - Visible Passes

Search period start: 23 October 2021 00:00
Search period end: 02 November 2021 00:00
Orbit: 450 x 495 km, 97.3° (Epoch: 22 October)

Date Brightness Start Highest point End Pass type
(mag) Time Alt. Az. Time Alt. Az. Time Alt. Az.
23 Oct 9.8 09:14:07 10° NE 09:16:23 16° E 09:18:37 10° SE visible
23 Oct 7.3 10:46:24 10° N 10:49:40 31° WNW 10:52:54 10° SW visible
24 Oct 6.5 10:18:01 10° N 10:21:41 74° WNW 10:25:16 10° SSW visible
24 Oct 10.1 22:26:57 10° WSW 22:28:44 13° W 22:30:33 10° WNW visible
25 Oct 7.8 09:50:03 10° NNE 09:53:34 44° E 09:57:01 10° S visible
26 Oct 9.4 09:22:36 10° NE 09:25:20 20° E 09:28:02 10° SE visible
27 Oct 6.6 10:26:57 10° N 10:30:31 55° WNW 10:34:02 10° SSW visible
27 Oct 10.6 22:37:09 10° W 22:37:40 10° W 22:38:12 10° W visible
28 Oct 7.2 09:58:49 10° NNE 10:02:26 59° E 10:05:57 10° S visible
29 Oct 9.0 09:31:09 10° NE 09:34:11 25° E 09:37:12 10° SSE visible
30 Oct 10.1 09:04:35 10° ENE 09:05:50 11° E 09:07:05 10° ESE visible
30 Oct 6.9 10:35:50 10° N 10:39:16 42° WNW 10:42:39 10° SW visible
31 Oct 6.6 10:07:33 10° NNE 10:11:11 79° ESE 10:14:44 10° S visible
31 Oct 9.8 22:15:36 10° SW 22:18:07 18° W 22:20:41 10° NW visible
01 Nov 8.5 09:39:41 10° NNE 09:42:58 32° E 09:46:11 10° SSE visible
